Location: Le Castellard
(44.1862°N, 6.1301°E)
Time: 19:09:33
(UTC+00:00)

IRS-1C Rocket - Pass Details

Date: 18 January 2020
Orbit: 801 x 805 km, 99.0° (Epoch: 16 February)

Event Time Altitude Azimuth Distance (km) Brightness Sun altitude
Rises 06:16:21 0° 12° (NNE) 3,323 7.2 -9.0°
Reaches altitude 10° 06:18:42 10° 12° (NNE) 2,389 6.5 -8.6°
Maximum altitude 06:23:58 77° 287° (WNW) 828 4.1 -7.7°
Drops below altitude 10° 06:29:12 10° 202° (SSW) 2,375 6.6 -6.8°
Sets 06:31:32 0° 201° (SSW) 3,302 7.3 -6.4°
